Location: Asis
(14.1331°N, 120.9056°E)
Time: 04:57:58
(UTC+00:00)

Cosmos 1869 Rocket - Pass Details

Date: 15 January 2026
Orbit: 597 x 626 km, 82.5° (Epoch: 11 February)

Event Time Altitude Azimuth Distance (km) Brightness Sun altitude
Rises 11:02:42 0° 352° (N) 2,863 6.9 -18.1°
Reaches altitude 10° 11:04:55 10° 350° (N) 1,954 6.0 -18.6°
Maximum altitude 11:09:13 72° 267° (W) 636 3.7 -19.6°
Drops below altitude 10° 11:13:29 10° 182° (S) 1,936 6.3 -20.6°
Sets 11:15:41 0° 180° (S) 2,834 7.2 -21.1°
